Simultaneous Nadir Overpasses (SNOs) Predictions

Prediction of SNOs between GOES-17 and TERRA Satellite Orbit:

Table of predicted SNOs for the next 14.0 days since TLE Epoch: 2/13/2025
Index Date Time (GOES-17) GOES-17 Lat,Lon TERRA Lat,Lon Distance(km) Time Diff (sec)
1 02/14/2025 04:26:57 0.00,-104.68 0.08,-104.29 44.13 80
2 02/14/2025 16:46:33 -0.00,-104.67 0.90,-109.06 497.94 80
3 02/16/2025 16:30:32 -0.01,-104.68 -0.02,-104.55 14.38 80
4 02/19/2025 04:31:34 0.01,-104.69 -0.05,-104.85 17.99 80
5 02/21/2025 04:10:13 0.00,-104.69 0.93,-100.35 494.08 80
6 02/21/2025 16:29:48 -0.00,-104.69 0.10,-105.11 48.48 80
7 02/23/2025 16:13:46 -0.00,-104.69 -0.85,-100.60 463.64 80
8 02/24/2025 04:33:29 0.00,-104.70 -0.13,-105.40 80.02 80
9 02/26/2025 04:12:06 0.01,-104.69 0.80,-100.89 431.85 80
10 02/26/2025 16:31:42 -0.01,-104.68 0.17,-105.66 111.43 80
